Wind_Speed
2 2 2 2 2 1 1 2 6 7 7 7 7 6 6 7 8 8 8 7 8 8 7 6 6 6 6 6 6 6 6 6 7 7 8 8 8 9 9 10 11 11 11 11 11 11 12 12 12
2 3 3 2 2 2 4 4 8 8 9 8 7 7 7 7 8 8 8 8 8 8 8 8 7 8 7 6 6 6 7 7 8 8 8 8 9 10 11 11 12 12 12 12 13 13 13 14 14
3 3 3 3 2 6 6 5 8 8 10 8 8 8 8 8 8 10 9 9 8 8 9 9 8 8 8 7 6 7 7 8 9 9 9 9 10 11 11 12 12 13 13 13 14 14 14 14 14
4 4 3 3 4 7 8 8 9 8 9 8 9 9 10 9 9 10 10 9 9 8 9 9 10 8 8 7 7 8 8 8 9 9 9 10 11 11 12 13 13 14 15 15 15 15 15 15 15
5 4 3 4 6 8 9 10 11 10 9 9 10 11 12 11 11 11 11 10 10 9 10 11 11 9 9 9 9 9 9 8 9 9 10 11 12 12 13 14 15 15 15 16 16 17 17 17 17
6 5 4 4 7 9 10 11 11 10 10 10 11 11 11 12 12 11 11 11 11 11 11 11 11 10 10 11 11 10 10 10 10 10 11 13 13 13 14 15 16 15 15 16 17 17 18 18 18
7 5 4 6 7 9 10 11 11 10 11 11 12 12 11 12 12 12 12 12 12 11 11 12 12 11 11 11 12 12 11 11 11 12 13 14 14 14 16 16 17 17 17 18 18 18 18 19 19
7 5 5 7 6 9 12 10 12 12 12 12 12 13 12 11 12 13 12 12 12 12 12 11 11 11 12 13 13 13 13 13 14 14 14 14 14 15 17 18 18 18 19 19 19 19 20 20 20
7 6 6 6 6 9 12 11 12 12 11 12 13 13 12 11 12 12 12 12 13 13 13 13 14 13 14 14 15 15 15 15 15 15 16 15 16 17 18 19 19 19 19 20 20 21 21 21 21
7 7 7 9 10 10 11 11 12 11 11 12 14 13 12 12 12 13 13 13 13 13 14 15 15 15 16 17 16 16 17 18 17 18 18 19 19 19 19 20 20 20 21 21 22 23 23 23 23
9 8 9 9 10 10 10 11 11 12 12 13 14 15 13 13 13 13 14 15 15 15 15 15 16 17 18 18 18 19 19 19 20 20 20 20 21 21 21 21 21 21 22 23 23 24 25 25 25
11 10 10 11 10 11 11 11 11 12 13 14 14 12 12 13 14 14 15 15 16 16 16 17 18 19 20 21 20 21 21 21 21 21 22 22 23 23 23 24 23 23 24 24 25 25 26 26 26
12 11 12 12 11 12 11 12 13 14 13 14 14 14 15 14 16 16 16 16 17 17 17 18 20 20 21 22 22 22 22 23 22 22 23 23 23 23 24 25 25 25 25 25 26 26 27 27 27
11 12 12 11 11 11 10 11 12 13 13 14 14 15 16 15 17 17 17 17 17 18 19 20 21 21 21 21 21 21 22 23 23 22 23 24 24 24 25 25 25 25 26 26 26 26 27 28 28
8 10 10 9 10 9 9 11 12 13 14 14 14 16 17 17 17 17 18 19 20 20 20 21 21 20 21 21 22 22 23 23 23 23 23 24 24 25 24 24 25 26 27 27 27 27 28 28 27
7 9 9 9 10 9 9 11 14 14 15 15 15 17 18 18 18 18 19 20 21 21 21 21 21 21 22 22 22 23 23 23 24 23 22 23 24 25 25 24 25 26 27 27 27 27 27 27 27
6 7 7 10 10 9 10 12 15 15 16 15 16 17 18 19 19 19 20 21 22 22 21 21 21 22 22 22 23 24 23 24 25 24 24 25 26 26 26 25 25 26 26 26 27 27 27 27 27
6 7 7 8 10 10 11 12 15 16 16 15 16 17 19 19 20 20 20 20 21 21 21 21 21 22 22 22 23 24 24 25 25 25 25 25 25 26 26 25 25 26 25 25 26 26 26 28 28
8 9 9 10 10 12 12 13 15 16 16 15 17 18 19 20 21 21 21 21 20 21 21 21 21 21 22 23 23 23 24 25 25 24 24 24 25 25 25 25 25 25 25 25 25 26 27 27 28
9 10 9 9 9 12 13 13 14 15 16 17 18 20 21 20 21 21 21 21 20 21 20 20 21 22 22 23 23 24 25 24 24 23 23 24 25 25 25 26 25 25 24 24 25 25 26 26 26
9 8 9 11 10 12 12 12 13 15 17 18 20 21 21 21 21 21 21 21 21 21 21 21 21 22 23 23 23 23 24 24 24 23 23 24 25 25 25 24 24 24 24 24 24 25 25 25 25
9 9 11 12 12 12 13 15 15 16 17 18 20 21 22 21 21 21 21 21 21 22 22 21 22 23 23 23 23 23 23 23 23 23 23 24 24 24 24 23 23 23 24 24 24 25 25 25 24
10 10 12 13 13 12 12 15 17 18 18 19 20 22 21 21 21 21 20 20 21 21 22 22 22 22 22 22 22 22 22 22 22 22 22 23 24 24 24 23 22 22 22 23 23 23 23 23 23
10 11 11 12 13 14 13 15 18 17 17 20 21 21 21 20 20 21 20 20 20 20 21 21 20 21 21 21 22 22 22 22 22 22 22 23 23 23 22 21 21 21 21 22 22 22 22 22 22
11 11 12 14 14 13 15 16 15 15 18 20 21 20 21 20 20 21 21 21 20 20 20 19 19 20 21 21 20 22 22 22 21 21 21 21 21 21 21 20 20 20 21 21 20 20 20 21 21
14 13 14 15 13 14 16 18 18 15 18 21 21 21 20 20 20 20 20 19 19 19 19 19 19 20 20 20 20 21 20 20 21 21 20 20 20 20 20 20 20 20 20 20 19 19 19 20 20
13 13 13 14 14 14 14 16 19 17 18 20 20 20 20 20 20 20 20 18 18 18 18 19 19 20 20 20 19 19 19 19 20 19 19 19 19 19 19 20 20 20 19 19 18 19 19 19 20
13 12 14 14 15 14 13 16 18 20 19 18 19 20 20 21 20 19 18 18 18 18 18 19 19 20 19 18 18 18 18 19 19 18 18 19 18 19 19 19 18 18 18 18 18 18 19 19 19
14 14 15 16 15 16 16 17 19 18 20 21 21 21 20 20 19 19 18 18 18 18 18 18 18 18 17 16 17 17 17 17 17 17 18 18 18 18 18 18 17 17 17 17 17 17 18 18 17
16 16 15 16 16 16 17 19 20 21 21 21 21 21 20 19 20 19 18 18 18 18 18 17 16 16 16 16 16 16 17 17 16 17 18 18 17 17 17 18 18 18 17 17 17 17 17 16 15
Wind_Direction
190 174 154 143 112 90 259 262 273 284 280 279 280 281 287 296 297 292 297 306 307 311 317 322 315 311 303 295 297 290 281 276 269 267 265 263 260 258 257 260 258 257 257 258 257 254 254 254 252
204 194 180 140 105 245 264 256 271 282 283 285 288 285 286 292 292 290 301 305 306 311 316 314 313 310 304 299 298 288 283 278 275 275 274 273 271 268 266 266 265 263 260 260 259 256 257 257 256
210 199 185 153 246 249 260 268 275 282 285 285 283 286 290 292 292 302 307 308 311 315 320 318 313 308 305 308 303 294 292 288 285 281 276 277 276 274 273 270 270 269 265 262 259 259 260 258 257
201 195 171 192 247 260 261 275 282 285 284 286 283 284 286 285 294 298 302 308 310 316 322 321 312 310 307 305 305 302 300 295 293 287 282 283 281 278 274 271 269 269 267 266 263 261 261 261 260
204 187 169 224 259 268 277 280 279 287 293 288 285 289 290 292 297 300 300 303 308 311 315 313 309 307 308 306 305 304 299 294 293 288 287 289 287 284 278 275 273 271 271 271 269 266 263 263 262
210 186 197 228 260 264 275 274 273 278 284 282 283 284 288 294 299 300 300 301 306 308 308 310 311 309 308 307 306 304 300 294 291 289 288 289 287 285 279 276 276 275 273 273 271 269 268 266 264
199 178 207 224 250 267 270 274 271 275 277 280 285 291 297 298 300 303 302 304 304 304 305 307 305 307 308 307 306 306 303 299 296 292 290 288 287 287 284 281 278 275 274 273 272 271 270 269 268
192 185 218 229 241 272 272 269 272 275 278 285 288 291 298 304 304 304 305 307 307 305 305 306 307 306 305 308 308 305 303 301 301 298 294 295 294 293 289 285 281 277 275 275 273 271 270 269 269
196 209 221 230 245 264 273 270 270 271 278 284 285 289 293 300 304 303 303 304 304 303 304 308 307 307 305 306 306 302 304 300 299 297 294 294 294 294 293 290 285 280 278 277 275 274 274 273 272
209 228 229 236 235 248 266 268 274 277 280 283 288 293 294 298 303 305 304 302 300 299 304 304 303 303 307 307 305 304 304 302 300 299 296 294 294 294 293 290 286 281 279 280 279 276 275 275 273
221 235 238 237 247 251 261 267 275 278 281 282 288 293 297 295 300 304 304 303 302 299 302 303 305 306 305 305 303 303 303 301 301 300 297 294 294 294 292 291 286 283 281 281 281 278 276 275 273
228 233 242 249 250 252 259 270 279 278 279 285 292 297 294 299 301 300 302 303 303 302 301 302 303 305 304 304 302 301 300 300 300 299 298 296 295 294 292 293 291 287 284 282 280 279 278 277 275
234 238 243 252 256 252 257 265 274 278 281 289 294 298 297 296 299 299 299 301 303 302 300 301 301 304 306 305 302 301 300 302 300 301 299 298 297 296 295 294 292 290 288 286 284 280 278 278 278
234 243 248 252 255 255 259 268 273 278 285 288 292 298 299 297 294 296 296 299 299 299 299 300 301 305 306 306 305 305 304 304 302 300 299 298 297 297 295 294 292 291 289 287 284 282 280 279 277
239 244 248 247 255 256 263 271 274 280 288 291 296 298 298 300 297 299 300 298 298 299 299 299 301 303 304 304 304 304 302 301 302 300 300 300 300 299 296 295 294 291 288 284 282 282 281 278 276
238 242 250 250 248 256 265 268 277 287 290 294 299 300 302 303 301 300 300 298 298 299 299 299 300 302 303 303 304 303 301 301 302 302 302 302 302 301 298 296 294 293 290 287 284 281 281 279 277
249 250 255 247 251 260 268 267 281 288 293 293 298 300 304 307 306 304 302 300 300 299 299 299 301 302 303 303 302 301 301 302 303 303 304 304 304 302 299 297 295 294 292 288 286 283 281 280 279
252 258 244 248 257 266 268 270 282 291 291 296 299 303 305 306 306 305 305 305 304 304 302 300 300 300 303 304 303 302 301 304 304 304 304 303 303 302 302 299 297 296 294 290 287 285 284 283 282
243 244 249 245 255 267 277 281 285 292 297 303 304 306 306 306 304 305 307 307 307 308 305 304 303 303 305 306 306 305 305 305 304 304 304 304 304 304 302 300 297 296 295 294 291 290 287 286 285
243 246 255 270 260 265 275 281 284 286 293 301 304 306 307 307 307 307 308 309 310 311 310 306 306 306 307 308 306 306 307 307 305 305 305 306 305 305 304 301 298 296 295 294 294 292 290 288 287
252 256 258 259 260 272 284 281 281 285 287 295 302 303 308 309 308 308 308 309 311 310 310 310 308 308 308 308 307 306 306 306 307 306 306 306 307 307 306 302 299 297 295 294 293 293 293 291 289
256 254 261 269 272 282 283 278 279 283 292 296 303 309 310 311 309 309 310 311 310 310 310 310 309 309 308 307 307 307 308 308 308 307 308 309 311 310 308 304 301 299 296 297 296 294 293 292 291
256 264 270 275 276 275 272 278 279 285 293 298 308 311 312 313 313 312 312 313 311 310 312 312 312 310 308 308 308 308 309 309 309 310 310 311 312 311 309 307 305 303 300 300 300 297 294 295 294
262 269 273 276 275 269 268 270 276 287 296 305 311 311 312 313 313 313 314 313 312 312 314 315 314 314 314 311 310 309 309 310 310 311 311 310 312 314 313 313 310 308 305 303 302 301 298 297 295
261 270 274 270 271 278 288 280 275 288 294 300 305 309 311 313 312 312 315 316 315 315 316 316 318 317 316 314 313 312 311 311 311 313 313 314 316 318 319 318 314 311 309 306 307 305 302 300 297
255 258 265 265 271 283 291 290 284 289 293 298 303 307 311 315 314 312 314 316 316 317 319 320 320 320 319 319 318 317 316 315 314 314 315 316 319 322 322 321 318 315 312 310 310 307 305 303 299
254 256 263 271 279 281 283 287 285 285 291 298 304 309 315 314 317 317 316 316 317 319 321 321 322 323 322 321 321 322 322 321 319 319 318 320 321 322 322 322 320 318 316 314 314 313 310 307 304
273 270 272 274 282 280 278 281 283 286 293 301 303 306 311 315 318 319 319 320 321 321 321 321 322 323 323 324 324 325 325 325 325 326 324 323 323 323 323 324 323 321 320 319 318 317 313 311 308
267 270 271 272 273 279 279 280 287 293 296 297 300 304 309 314 316 317 318 320 319 319 318 319 321 323 325 327 328 328 329 330 330 330 329 328 328 326 324 324 325 324 322 319 319 320 318 316 313
262 271 268 271 273 273 277 284 289 292 292 294 299 303 307 310 312 314 316 317 317 318 318 319 322 324 326 328 330 332 332 331 331 333 333 331 330 333 332 329 328 326 325 324 324 324 323 320 319
Height
5884 5885 5885 5886 5887 5888 5888 5888 5887 5886 5886 5885 5885 5884 5884 5883 5883 5883 5880 5879 5879 5878 5877 5876 5875 5874 5873 5872 5871 5871 5871 5870 5871 5870 5870 5870 5870 5870 5870 5870 5870 5870 5870 5870 5870 5870 5870 5871 5871
5884 5885 5886 5886 5887 5888 5888 5887 5887 5885 5885 5884 5884 5883 5883 5882 5880 5879 5879 5878 5878 5877 5876 5875 5874 5873 5872 5871 5870 5870 5869 5869 5869 5869 5869 5868 5868 5868 5868 5868 5868 5868 5868 5868 5868 5868 5868 5869 5869
5883 5884 5885 5885 5887 5887 5886 5885 5885 5884 5884 5883 5883 5882 5882 5881 5879 5878 5878 5877 5877 5876 5875 5874 5873 5872 5871 5870 5869 5869 5868 5868 5868 5867 5867 5867 5866 5866 5866 5866 5866 5866 5865 5865 5865 5865 5865 5866 5866
5882 5884 5884 5886 5887 5886 5885 5886 5884 5883 5882 5882 5882 5882 5880 5879 5878 5878 5877 5876 5875 5875 5874 5873 5872 5871 5870 5869 5868 5868 5867 5867 5866 5866 5865 5865 5865 5864 5864 5864 5863 5863 5863 5863 5862 5862 5863 5863 5863
5881 5882 5883 5885 5886 5886 5885 5885 5884 5883 5882 5882 5881 5880 5879 5878 5878 5877 5876 5874 5873 5873 5872 5871 5871 5870 5869 5868 5867 5866 5866 5865 5864 5864 5864 5863 5862 5862 5861 5861 5861 5860 5860 5860 5860 5859 5859 5860 5860
5880 5880 5883 5884 5886 5885 5884 5884 5883 5883 5882 5880 5879 5878 5877 5877 5876 5875 5873 5872 5872 5871 5871 5870 5869 5868 5868 5867 5866 5865 5864 5863 5863 5862 5861 5860 5860 5859 5858 5858 5857 5857 5857 5857 5856 5856 5856 5856 5856
5879 5879 5881 5883 5884 5884 5883 5882 5882 5881 5880 5879 5878 5876 5875 5875 5874 5873 5872 5871 5870 5869 5869 5868 5867 5866 5866 5865 5864 5863 5862 5861 5860 5860 5859 5858 5857 5856 5855 5854 5854 5854 5853 5853 5852 5852 5852 5852 5852
5877 5878 5880 5882 5882 5883 5881 5880 5880 5879 5879 5878 5877 5875 5874 5874 5873 5872 5871 5870 5868 5867 5867 5866 5865 5865 5864 5863 5862 5861 5860 5859 5858 5857 5856 5855 5854 5853 5852 5851 5850 5850 5849 5849 5849 5848 5848 5847 5848
5876 5878 5879 5881 5882 5882 5879 5878 5878 5878 5877 5876 5874 5873 5873 5872 5871 5870 5869 5868 5866 5865 5864 5864 5863 5862 5862 5861 5860 5858 5857 5857 5855 5854 5853 5852 5850 5850 5849 5848 5847 5846 5845 5844 5844 5844 5843 5843 5843
5874 5876 5877 5878 5878 5878 5878 5877 5876 5876 5875 5874 5872 5871 5871 5870 5869 5869 5868 5866 5864 5863 5862 5861 5860 5860 5859 5858 5857 5855 5854 5853 5852 5851 5849 5848 5847 5846 5845 5843 5842 5841 5840 5840 5839 5839 5838 5838 5838
5873 5874 5874 5875 5874 5875 5876 5875 5875 5874 5873 5872 5870 5870 5869 5869 5868 5867 5865 5864 5863 5862 5861 5859 5858 5857 5856 5855 5854 5852 5851 5850 5848 5847 5845 5844 5843 5841 5840 5839 5837 5836 5835 5835 5834 5834 5833 5833 5832
5872 5872 5872 5873 5873 5873 5873 5873 5873 5872 5871 5870 5869 5867 5867 5867 5866 5865 5863 5862 5861 5859 5858 5857 5856 5855 5853 5851 5850 5849 5847 5846 5844 5843 5841 5839 5838 5836 5835 5833 5832 5831 5830 5829 5829 5828 5828 5827 5826
5869 5870 5870 5870 5870 5871 5871 5872 5871 5870 5869 5867 5867 5865 5864 5864 5863 5862 5861 5859 5858 5857 5856 5854 5853 5852 5850 5848 5846 5845 5843 5841 5840 5838 5836 5834 5833 5831 5829 5828 5826 5825 5824 5823 5822 5821 5821 5821 5820
5866 5867 5867 5867 5868 5869 5869 5869 5869 5868 5866 5865 5865 5864 5862 5862 5860 5859 5858 5856 5855 5854 5853 5851 5850 5848 5846 5844 5842 5840 5839 5837 5835 5833 5831 5829 5828 5826 5824 5822 5821 5819 5818 5817 5815 5815 5814 5814 5813
5863 5864 5864 5865 5866 5867 5867 5867 5867 5866 5864 5863 5862 5861 5860 5858 5858 5856 5855 5853 5852 5850 5849 5847 5846 5844 5842 5840 5838 5836 5834 5832 5830 5828 5826 5824 5822 5820 5818 5817 5815 5813 5811 5810 5809 5808 5807 5806 5806
5861 5862 5862 5864 5864 5864 5867 5866 5865 5863 5862 5860 5860 5858 5857 5856 5855 5853 5852 5850 5849 5847 5845 5843 5841 5840 5838 5836 5834 5832 5830 5828 5825 5823 5821 5819 5816 5814 5812 5810 5809 5806 5804 5803 5802 5800 5800 5799 5798
5859 5860 5861 5862 5863 5863 5864 5864 5862 5861 5860 5857 5858 5856 5854 5853 5852 5850 5848 5847 5845 5843 5841 5839 5837 5835 5834 5832 5829 5827 5825 5823 5821 5818 5816 5814 5811 5808 5806 5804 5802 5800 5798 5796 5795 5793 5793 5792 5791
5860 5860 5861 5862 5862 5861 5861 5862 5860 5859 5858 5855 5854 5853 5852 5850 5849 5847 5845 5843 5841 5839 5837 5835 5833 5831 5829 5827 5825 5822 5820 5818 5815 5813 5810 5808 5805 5803 5801 5798 5796 5793 5791 5790 5788 5786 5785 5784 5783
5858 5859 5860 5861 5861 5861 5859 5860 5859 5857 5855 5854 5853 5851 5849 5848 5846 5844 5842 5839 5837 5835 5833 5831 5829 5827 5825 5823 5820 5818 5815 5813 5810 5807 5805 5802 5800 5797 5795 5792 5790 5788 5785 5783 5781 5780 5779 5777 5776
5856 5857 5858 5858 5859 5859 5859 5858 5857 5855 5853 5852 5851 5848 5847 5845 5842 5840 5838 5836 5834 5831 5829 5827 5825 5823 5820 5818 5815 5813 5811 5808 5805 5802 5800 5797 5794 5791 5789 5786 5784 5782 5780 5777 5775 5774 5772 5771 5769
5854 5855 5855 5856 5857 5857 5856 5856 5854 5852 5851 5850 5848 5846 5843 5841 5839 5837 5834 5832 5830 5828 5825 5823 5821 5818 5816 5813 5810 5808 5805 5803 5800 5797 5795 5792 5788 5786 5783 5780 5778 5776 5774 5772 5770 5768 5766 5764 5762
5853 5855 5854 5853 5854 5855 5855 5852 5851 5849 5848 5846 5845 5843 5840 5837 5835 5833 5831 5829 5826 5824 5821 5819 5816 5814 5811 5808 5805 5803 5800 5798 5795 5792 5789 5786 5783 5780 5778 5775 5772 5770 5767 5766 5764 5762 5760 5758 5756
5851 5852 5851 5851 5851 5852 5852 5850 5847 5845 5844 5843 5841 5840 5837 5835 5832 5830 5828 5825 5823 5820 5817 5815 5812 5809 5806 5804 5801 5798 5796 5793 5790 5787 5785 5782 5779 5775 5772 5770 5767 5764 5762 5760 5758 5755 5753 5751 5750
5850 5850 5850 5849 5849 5849 5848 5847 5845 5843 5842 5840 5839 5838 5835 5832 5829 5826 5823 5821 5819 5816 5814 5811 5808 5805 5802 5800 5797 5794 5791 5789 5786 5783 5780 5777 5774 5771 5768 5765 5762 5759 5757 5754 5752 5750 5748 5746 5744
5848 5849 5848 5848 5847 5846 5845 5844 5843 5841 5840 5839 5837 5835 5832 5829 5827 5823 5819 5818 5816 5813 5810 5807 5804 5802 5799 5796 5793 5790 5787 5784 5782 5779 5776 5773 5770 5767 5764 5761 5758 5755 5752 5750 5747 5745 5743 5741 5738
5845 5846 5846 5846 5845 5845 5844 5841 5839 5838 5837 5836 5835 5831 5829 5826 5824 5820 5817 5815 5812 5810 5806 5804 5801 5798 5795 5792 5789 5786 5783 5781 5778 5775 5772 5769 5767 5764 5761 5757 5754 5751 5748 5746 5743 5741 5738 5736 5733
5843 5842 5843 5843 5841 5841 5841 5839 5836 5834 5834 5833 5831 5829 5826 5824 5821 5818 5815 5812 5809 5806 5803 5800 5798 5795 5791 5788 5786 5783 5780 5777 5774 5771 5768 5766 5763 5761 5757 5754 5751 5748 5745 5742 5739 5737 5734 5731 5729
5840 5840 5840 5839 5838 5838 5838 5836 5833 5830 5830 5829 5827 5826 5824 5821 5818 5815 5812 5809 5806 5804 5801 5798 5795 5792 5788 5785 5783 5780 5777 5774 5771 5768 5765 5763 5760 5758 5754 5751 5748 5745 5742 5739 5736 5733 5730 5727 5724
5838 5837 5837 5836 5835 5835 5834 5834 5828 5827 5826 5825 5824 5822 5820 5817 5815 5812 5809 5806 5804 5801 5798 5795 5792 5789 5786 5783 5780 5777 5775 5772 5769 5766 5763 5760 5758 5755 5752 5749 5745 5742 5739 5735 5732 5729 5726 5723 5720
5833 5833 5833 5833 5832 5831 5831 5832 5827 5825 5824 5822 5820 5818 5816 5814 5812 5809 5806 5804 5801 5798 5795 5793 5790 5787 5784 5781 5778 5776 5773 5770 5767 5764 5761 5758 5755 5752 5749 5746 5742 5739 5736 5732 5729 5726 5722 5719 5716